CZ-3B R/B (43684 NORAD) Tracking and Keplerian Element Data

This shows tracking and keplerian element data for the satellite.

Feedback or suggestion? Click here.




ElementValue
Catalog43684
NameCZ-3B R/B
Epoch Orbit43
Epoch Day323.4017891
Epoch Year2018
RAAN270.6579
Inclination28.3775
Eccentricity0.7230064
Argument of Perigee190.0997
Mean Anonmoly137.9652
Mean Motion2.39923914
Decay Rate0.00054429
L11 43684U 18085B 18323.40178910 .00054429 -36782-6 56982-3 0 9994
L22 43684 28.3775 270.6579 7230064 190.0997 137.9652 2.39923914 434

Live tracking and technical data element details for CZ-3B R/B (NORAD 43684). CZ-3B R/B can be tracked NOW for your location showing map with azimuth and elevation plus other details from your city location.

Track the satellite on the map from your city or location and see movement details for azimuth, elevation, latitude, longitude, range, height, and movement on the map or in text.







IsCatalogInMostPopularTable: catalog: 43684, numindb: 9
Update: records affected: 1



GetName: 43684 CZ-3B R/B

Hit Count: updated at: Tue, 20 Nov 2018 11:37:00 GMT